Regional Weather Roundup
Issued by NWS

Home | Current Version | Previous Version | Graphics & Text | Print | Product List | Glossary On
Versions: 1 2 3 4 5 6 7 8 9 10 11 12 13 14 15 16 17 18 19 20 21 22 23 24 25 26 27 28 29 30 31 32 33 34 35 36 37 38 39 40 41 42 43 44 45 46 47 48 49 50
000
ASUS43 KOAX 030402
RWRNE

WEATHER ROUNDUP FOR NEBRASKA
NATIONAL WEATHER SERVICE OMAHA NE
1100 PM CDT SUN AUG 02 2015

NOTES: SATELLITE DATA IS BEING USED TO AUGMENT CLOUD COVER ABOVE
       12000 FEET.
       "FAIR" INDICATES FEW OR NO CLOUDS BELOW 12,000 FEET WITH NO
       SIGNIFICANT WEATHER AND/OR OBSTRUCTIONS TO VISIBILITY.

  * THESE STATIONS DO NOT REPORT WEATHER SUCH AS RAIN...SNOW OR FOG.

NEZ001>004-019>022-054>056-030500-
NEBRASKA PANHANDLE

CITY           SKY/WX    TMP DP  RH WIND       PRES   REMARKS
SCOTTSBLUFF    MOCLDY    75  57  53 E8        30.00R
ALLIANCE       PTCLDY    67  57  70 E5        30.00R
CHADRON        CLEAR     71  57  61 NE10      30.00R
KIMBALL        MOCLDY    65  52  61 SE9       30.06R
SIDNEY         PTCLDY    69  56  62 S9        30.05R
$$

NEZ057>060-069>072-079>082-030500-
SOUTHWEST NEBRASKA

CITY           SKY/WX    TMP DP  RH WIND       PRES   REMARKS
NORTH PLATTE   MOCLDY    64  60  87 N5        29.97R
IMPERIAL       PTCLDY    76  53  44 S13       29.98R
LEXINGTON      MOCLDY    67  58  72 NW3       29.93R
MCCOOK         PTCLDY    72  57  59 SW7       29.94S
$$

NEZ005>010-023>029-035>040-094-030500-
NORTH CENTRAL NEBRASKA

CITY           SKY/WX    TMP DP  RH WIND       PRES   REMARKS
AINSWORTH      CLEAR     69  64  83 NE3       29.98R
BROKEN BOW     PTCLDY    64  59  83 N6        29.95R
ORD            CLEAR     70  64  81 N5        29.92R
$$

NEZ041-046>049-061>064-073>077-083>087-030500-
SOUTH CENTRAL NEBRASKA

CITY           SKY/WX    TMP DP  RH WIND       PRES   REMARKS
GRAND ISLAND   PTCLDY    66  61  84 NE5       29.91R
AURORA         PTCLDY    68  63  84 N6        29.90R
HASTINGS       CLEAR     70  62  76 NE6       29.91R
HEBRON         PTCLDY    78  68  72 CALM      29.88S
HOLDREGE       PTCLDY    74  53  47 SW6       29.91S
KEARNEY *      PTCLDY    66  55  68 NE5       29.90R
YORK           CLEAR     72  66  83 N6        29.89R
$$

NEZ011>018-030>034-042>045-030500-
NORTHEAST NEBRASKA

CITY           SKY/WX    TMP DP  RH WIND       PRES   REMARKS
NORFOLK        PTCLDY    76  68  76 N10       29.89F
ALBION         CLEAR     74  66  76 N5        29.92R
BLAIR          MOCLDY    76  69  78 N6        29.87R
COLUMBUS *     PTCLDY    73  64  73 N3        29.88S
FREMONT        MOCLDY    78  69  75 CALM      29.88R
TEKAMAH        PTCLDY    76  72  87 N7        29.85S
$$

NEZ050>053-065>068-078-088>093-030500-
SOUTHEAST NEBRASKA

CITY           SKY/WX    TMP DP  RH WIND       PRES   REMARKS
LINCOLN        CLEAR     77  62  59 N3        29.87R
OMAHA EPPLEY   MOCLDY    79  73  82 N3        29.86R
BEATRICE       PTCLDY    79  72  78 S6        29.85S
FALLS CITY     MOCLDY    80  73  79 S9        29.84R
NEBRASKA CITY  PTCLDY    76  74  95 CALM      29.86R
$$

NEZ044-045-051>053-067-030500-
OMAHA AREA

CITY           SKY/WX    TMP DP  RH WIND       PRES   REMARKS
OMAHA EPPLEY   MOCLDY    79  73  82 N3        29.86R
BLAIR          MOCLDY    76  69  78 N6        29.87R
FREMONT        MOCLDY    78  69  75 CALM      29.88R
OFFUTT AFB     MOCLDY    80  73  78 NE1       29.86R
WAHOO          FAIR      69  66  89 CALM      29.87R
$$


USA.gov is the U.S. government's official web portal to all federal, state and local government web resources and services.